Location: Blandford
(50.8667°N, 2.1667°W)
Time: 00:35:35
(UTC+00:00)

CZ-4C R/B - Pass Details

Date: 09 April 2020
Orbit: 637 x 1365 km, 63.4° (Epoch: 04 June)

Event Time Altitude Azimuth Distance (km) Brightness Sun altitude
Rises 20:47:49 0° 313° (NW) 3,647 7.3 -16.8°
Reaches altitude 10° 20:50:18 10° 318° (NW) 2,802 6.2 -17.1°
Maximum altitude 20:56:53 52° 34° (NE) 1,408 3.3 -17.9°
Enters shadow 21:01:47 23° 101° (E) 2,381 4.0 -18.5°
